Simultaneous Nadir Overpasses (SNOs) Predictions

Prediction of SNOs between GOES-17 and NOAA-19 Satellite Orbit:

Table of predicted SNOs for the next 14.0 days since TLE Epoch: 4/25/2025
Index Date Time (GOES-17) GOES-17 Lat,Lon NOAA-19 Lat,Lon Distance(km) Time Diff (sec)
1 04/26/2025 16:49:00 0.01,-104.40 0.47,-106.30 216.83 80
2 04/27/2025 16:36:23 0.02,-104.40 -0.25,-103.24 132.65 80
3 04/28/2025 16:23:47 0.02,-104.40 -0.96,-100.18 481.95 80
4 04/30/2025 04:57:51 -0.02,-104.34 -0.80,-107.72 385.68 80
5 05/01/2025 04:45:15 -0.01,-104.34 -0.08,-104.66 36.62 80
6 05/02/2025 04:29:58 -0.01,-104.34 0.63,-101.60 312.51 80
7 05/04/2025 16:51:07 0.01,-104.39 0.41,-106.01 185.21 80
8 05/05/2025 16:35:51 0.01,-104.40 -0.32,-102.95 164.59 80
9 05/08/2025 04:57:18 -0.02,-104.35 -0.70,-107.44 351.95 80
10 05/09/2025 04:44:41 -0.02,-104.36 -0.02,-104.37 1.90 80
